FW5380 Weather Reports


Display with metric or nautical units.
time (UTC)temp
F
wind
direction
speed
MPH
gust
MPH
rain 1hr
in
rain 24hr
in
rain mn
in
humidity
%
barometer
mb
20260504173114 75 332 2.0 7.0 0.00 0.00 0.00 47 1013.0
20260504171530 75 343 3.0 8.0 0.00 0.00 0.00 47 1012.9
20260504170108 76 335 1.0 7.0 0.00 0.00 0.00 47 1012.9
20260504160145 71 34 1.0 5.0 0.00 0.00 0.00 52 1013.3
20260504130107 49 215 1.0 4.0 0.00 0.00 0.00 76 1012.4
20260504120103 54 214 1.0 5.0 0.00 0.00 0.00 71 1012.6
20260504081530 58 184 4.0 8.0 0.00 0.00 0.00 61 1013.1
20260504044531 61 175 4.0 6.0 0.00 0.00 0.00 61 1012.8
20260504043032 59 173 4.0 6.0 0.00 0.00 0.00 64 1012.7
20260504041530 60 191 2.0 4.0 0.00 0.00 0.00 65 1012.5
20260504040037 62 160 1.0 3.0 0.00 0.00 0.00 63 1012.3
20260504034533 62 135 2.0 3.0 0.00 0.00 0.00 64 1012.2
20260504033032 63 146 2.0 4.0 0.00 0.00 0.00 64 1012.1
20260504031532 66 175 3.0 5.0 0.00 0.00 0.00 64 1012.0
20260504030030 69 180 3.0 4.0 0.00 0.00 0.00 62 1011.9
20260504024531 72 180 2.0 4.0 0.00 0.00 0.00 59 1011.9
20260504023030 76 165 2.0 3.0 0.00 0.00 0.00 51 1011.8
20260504021606 78 62 0.0 0.0 0.00 0.00 0.00 47 1011.9
20260504014531 81 37 0.0 4.0 0.00 0.00 0.00 36 1012.0
20260504011530 82 3 2.0 5.0 0.00 0.00 0.00 32 1012.3
20260504010031 83 12 2.0 5.0 0.00 0.00 0.00 31 1012.4
20260504004603 83 357 2.0 5.0 0.00 0.00 0.00 31 1012.6
20260504003031 84 2 3.0 7.0 0.00 0.00 0.00 31 1012.7
20260504001527 84 358 3.0 7.0 0.00 0.00 0.00 29 1012.8
20260504000031 84 13 3.0 9.0 0.00 0.00 0.00 29 1012.9
20260503234529 84 12 3.0 7.0 0.00 0.00 0.00 30 1013.1
20260503233031 84 64 3.0 10.0 0.00 0.00 0.00 30 1013.3
20260503230032 83 65 2.0 7.0 0.00 0.00 0.00 31 1013.7
20260503224530 82 101 2.0 9.0 0.00 0.00 0.00 30 1014.1
20260503223109 82 42 3.0 7.0 0.00 0.00 0.00 31 1014.3
20260503221529 82 78 2.0 10.0 0.00 0.00 0.00 31 1014.5
20260503220032 83 40 3.0 9.0 0.00 0.00 0.00 31 1014.7
20260503214530 83 62 4.0 9.0 0.00 0.00 0.00 32 1015.0
20260503211529 81 40 4.0 10.0 0.00 0.00 0.00 33 1015.4
20260503210030 82 60 3.0 11.0 0.00 0.00 0.00 34 1015.6
20260503204529 82 33 5.0 10.0 0.00 0.00 0.00 35 1015.7
20260503203116 81 21 4.0 9.0 0.00 0.00 0.00 36 1015.8
20260503201605 80 52 2.0 9.0 0.00 0.00 0.00 37 1016.0
20260503200032 80 32 3.0 8.0 0.00 0.00 0.00 37 1016.2
20260503194529 80 47 3.0 8.0 0.00 0.00 0.00 37 1016.4
20260503193032 80 43 3.0 8.0 0.00 0.00 0.00 37 1016.5
20260503191529 81 8 3.0 8.0 0.00 0.00 0.00 35 1016.7
20260503190032 84 55 2.0 6.0 0.00 0.00 0.00 35 1016.8
20260503184530 81 71 1.0 7.0 0.00 0.00 0.00 38 1016.9
20260503183030 77 71 2.0 7.0 0.00 0.00 0.00 40 1017.0
20260503181528 79 349 3.0 7.0 0.00 0.00 0.00 40 1017.2
20260503174530 78 9 2.0 5.0 0.00 0.00 0.00 43 1017.4